User: anonymous   Login
Location: Unspecified
(0.0000°N, 0.0000°E)
Time: 22:13:23
(UTC+00:00)
Language:

ORS OBJECT Z - Orbit

View from above orbital plane
View from above orbital plane
View from above satellite
View from above satellite

Ground track
Ground track

The orbit data is extracted from the following two-line orbital elements,

1 39403U 13064Z   18344.06853428  .00006930  00000-0  10097-3 0  9997
2 39403  40.5236 346.3986 0002762 289.8117  70.2407 15.55937912282888
Epoch (UTC): 10 December 2018 01:38:41
Eccentricity: 0.0002762
inclination: 40.5236°
perigee height: 397 km
apogee height: 401 km
right ascension of ascending node: 346.3986°
argument of perigee: 289.8117°
revolutions per day: 15.55937912
mean anomaly at epoch: 70.2407°
orbit number at epoch: 28288

The dashed part of the orbit path shows where the satellite is in the earth's shadow,  

DLR